#timestamp,LO_Frequency,Hit,StdDev 
1569628815.4,286047004.4,Y
1569628835.3,286047002.9,P
1569628855.1,286047004.4,N
1569628875.9,286047001.4,N
1569628895.7,286047001.4,N
1569628915.5,286047003.1,N
1569628935.4,286047001.8,N
1569628955.2,286047004.4,N
1569628975.1,286047003.1,N
1569628976.0,286047003.1,N
1569628995.8,286047003.3,N
1569629015.8,286047001.8,N
1569629035.7,286047002.1,N
1569629055.5,286047001.6,N
1569629075.3,286047003.9,N
1569629095.2,286047002.1,N
1569629115.0,286047001.9,N
1569629115.9,286047001.9,N
1569629135.8,286047004.4,Y
1569629155.6,286046998.2,P
1569629175.4,286046999.6,N
1569629195.3,286046998.5,N
1569629215.1,286047000.3,N
1569629235.9,286047000.6,N
1569629255.7,286046998.5,N
1569629275.5,286046998.3,N
1569629295.4,286046998.1,N
1569629315.2,286047001.2,N
1569629335.0,286047000.0,N
1569629335.9,286047000.0,N
1569629355.8,286047002.8,N
1569629375.6,286047002.5,N
1569629395.5,286047003.2,N
1569629415.3,286047003.9,N
1569629435.1,286047004.0,N
1569629455.9,286047001.8,N
1569629475.7,286046999.9,N
1569629495.6,286046999.9,N
1569629515.4,286046998.1,N
1569629535.2,286047000.2,N
1569629555.1,286047000.2,N
1569629556.0,286047000.2,N
1569629575.8,286047002.0,N
1569629595.7,286047003.0,N
1569629615.5,286047003.8,N
1569629635.3,286047004.0,N
1569629655.2,286047005.9,Y
1569629675.0,286047001.7,P
1569629675.9,286047001.7,P
1569629695.7,286047001.6,P
1569629715.6,286047002.2,Y
1569629735.4,286046998.4,P
1569629755.3,286046998.4,N
1569629775.1,286047000.8,N
1569629795.8,286046999.7,N
1569629815.7,286047001.0,N
1569629835.5,286047000.7,N
1569629855.4,286047001.5,N
1569629875.2,286047000.4,N
1569629895.0,286046998.3,N
1569629895.9,286046998.3,N
1569629915.8,286046998.8,N
1569629935.6,286047000.8,N
1569629955.5,286047000.5,N
1569629975.3,286047001.5,N
1569629995.1,286047001.3,N
1569630015.9,286047003.1,N
1569630035.7,286047006.9,Y
1569630055.6,286047006.3,P
1569630075.4,286047006.9,N
1569630095.2,286047006.9,N
1569630115.1,286047005.3,N
1569630116.0,286047005.3,N
1569630135.8,286047003.7,N
1569630155.7,286047003.7,N
1569630175.5,286047003.0,N
1569630195.3,286047005.5,N
1569630215.2,286047004.5,N
1569630235.0,286047005.2,N
1569630235.9,286047005.2,N
1569630255.8,286047005.1,N
1569630275.6,286047004.7,N
1569630295.4,286047005.0,Y
1569630315.3,286046999.8,P
1569630335.1,286047002.5,N
1569630355.9,286047002.3,N
1569630375.7,286047001.9,N
1569630395.5,286047004.0,N
1569630415.4,286047001.4,N
1569630435.2,286047001.9,N
1569630455.0,286047001.5,N
1569630455.9,286047001.5,N
1569630475.8,286047002.1,N
1569630495.6,286047000.1,N
1569630515.5,286047000.8,N
1569630535.3,286046998.8,N
1569630555.1,286046998.3,N
1569630575.9,286047000.5,N
1569630595.7,286046998.3,N
1569630615.6,286046998.3,N
1569630635.4,286047000.7,N
1569630655.2,286046998.2,N
1569630675.1,286046999.5,N
1569630676.0,286046999.5,N
1569630695.8,286046996.5,N
1569630715.7,286046997.1,N
1569630735.5,286046996.6,N
1569630755.3,286046999.6,N
1569630775.2,286046999.2,N
1569630795.0,286046998.9,N
1569630795.9,286046998.9,N
1569630815.7,286046999.3,N
1569630835.6,286046999.3,N
1569630855.4,286046998.4,N
1569630875.3,286047000.7,N
1569630895.1,286046998.2,N
1569630896.0,286046998.2,N
1569630915.8,286046996.8,N
1569630935.7,286046994.9,Y
1569630955.5,286046996.1,P
1569630975.4,286046997.9,N
1569630995.2,286046997.5,N
1569631015.0,286046997.6,N
1569631015.9,286046997.6,N
1569631035.8,286046995.6,Y
1569631055.6,286046996.7,P
1569631075.5,286046996.7,P
1569631095.3,286046997.4,P
1569631115.1,286046994.9,Y
1569631135.9,286047000.7,P
1569631155.7,286047000.7,N
1569631175.6,286047000.4,N
1569631195.4,286047001.2,N
1569631215.6,286046998.9,N
1569631235.5,286046997.0,N
1569631255.3,286046997.7,N
1569631275.1,286046999.6,N
1569631295.9,286046997.5,N
1569631315.7,286046999.2,N
1569631335.6,286046996.8,N
1569631355.4,286046995.8,N
1569631375.2,286046993.3,Y
1569631395.1,286046994.9,P
1569631396.0,286046994.9,N
1569631415.8,286046995.2,N
1569631435.7,286046999.3,N
1569631455.5,286046997.0,N
1569631475.3,286047000.6,N
1569631495.2,286046998.7,N
1569631515.0,286046997.0,N
1569631515.9,286046997.0,N
1569631535.8,286046996.7,N
1569631555.6,286046999.6,N
1569631575.4,286047011.9,Y
1569631595.3,286047000.8,P
1569631615.1,286047000.4,N
1569631635.8,286047001.6,N
1569631655.7,286047002.7,N
1569631675.5,286046998.1,N
1569631695.4,286046998.1,N
1569631715.2,286046998.5,N
1569631735.0,286047000.5,N
1569631735.9,286047000.5,N
1569631755.8,286047000.3,N
1569631775.6,286047002.8,N
1569631795.5,286047000.2,N
1569631815.3,286047000.5,N
1569631835.1,286047002.5,N
1569631855.9,286047000.8,N
1569631875.7,286047000.7,N
1569631895.5,286047004.1,N
1569631915.4,286047002.5,N
1569631935.2,286047002.0,N
1569631985.1,286047001.0,E
1569631995.0,286047000.9,N
1569631995.9,286047000.9,P
1569632015.8,286047002.4,P
1569632035.6,286047001.9,N
1569632055.4,286047000.7,N
1569632075.3,286047000.4,N
1569632095.1,286046999.8,N
1569632115.8,286047002.3,N
1569632135.7,286046999.8,N
1569632155.5,286047001.9,N
1569632175.4,286046999.8,N
1569632195.2,286046999.7,N
1569632215.0,286047000.0,N
1569632215.9,286047000.0,N
1569632235.8,286047000.6,N
1569632255.6,286046998.8,N
1569632275.5,286046998.8,N
1569632295.3,286046999.3,N
1569632315.1,286046997.1,N
1569632335.9,286046997.3,N
1569632355.7,286046997.4,N
1569632375.5,286046996.5,N
1569632395.4,286046999.5,N
